[[{"header":{"parameterUnit":"m.s-1","parameterCategory":1,"la1":30.2991,"la2":30.254,"lo1":-89.0895,"lo2":-89.0444,"dy":0.0017,"dx":0.0017,"nx":28,"ny":28,"refTime":"2023-11-01T09:00:00:Z","depth":0,"parameterNumber":2,"parameterNumberName":"U-component_of_WINDS"},"data":[0,0,0,0,0,0,0,0,0,0,0,0,0,0,0,0,0,0,0,0,0,0,0,0,0,0,0,0,0,0,0,0,0,0,0,0,0,0,0,0,0,0,0,0,0,0,0,0,0,0,0,0,0,0,0,0,0,0,-4.6519,-4.6521,0,-4.6623,-4.6625,-4.6626,-4.6441,-4.6434,-4.6428,-4.6422,-4.6533,-4.6541,-4.655,0,0,0,0,0,0,0,0,0,0,0,0,0,-4.6162,-4.617,-4.6519,-4.6521,-4.6522,-4.6623,-4.6625,-4.6626,-4.6442,-4.6434,-4.6427,-4.6419,-4.653,-4.654,-4.6551,0,0,0,0,0,0,0,0,0,0,0,0,0,-4.6297,-4.6172,-4.6519,-4.6442,-4.6436,-4.6623,-4.6625,-4.6627,-4.6443,-4.6434,-4.6425,-4.6416,-4.6527,-4.6539,-4.6552,-4.682,0,0,-4.6592,-4.6598,0,0,0,0,0,0,0,0,-4.629,-4.6311,-4.6452,-4.6448,-4.6441,-4.6509,-4.6539,-4.6692,-4.6446,-4.6441,-4.6422,-4.6411,-4.6533,-4.6545,-4.6585,-4.6826,-4.683,-4.6594,-4.6602,-4.6607,-4.6611,0,0,0,0,0,0,0,-4.6281,-4.6305,-4.656,-4.6454,-4.6448,-4.6403,-4.6412,-4.6567,-4.6538,-4.644,-4.6427,-4.6442,-4.6528,-4.6573,-4.6586,-4.6832,-4.6593,-4.6605,-4.6613,-4.6618,-4.7296,-4.7306,0,0,0,0,0,0,-4.6281,-4.6299,-4.6557,-4.6564,-4.6341,-4.6417,-4.6427,-4.6497,-4.6536,-4.6533,-4.645,-4.6433,-4.6555,-4.6571,-4.659,-4.6905,-4.6607,-4.6619,-4.6627,-4.7286,-4.7298,-4.7309,0,0,0,0,0,0,-4.6274,-4.6305,-4.6553,-4.6428,-4.6455,-4.6433,-4.6514,-4.6504,-4.6548,-4.6543,-4.6537,-4.6501,-4.6548,-4.6571,-4.6764,-4.6907,-4.6625,-4.6637,-4.7274,-4.729,-4.7304,-4.754,0,0,0,0,0,0,-4.6264,-4.6304,-4.6406,-4.6431,-4.6463,-4.6726,-4.6522,-4.6513,-4.6571,-4.655,-4.6589,-4.6587,-4.6543,-4.6745,-4.6777,-4.692,-4.6647,-4.7261,-4.7281,-4.7299,-4.752,-4.7562,-4.7598,0,0,0,0,0,-4.6252,-4.6469,-4.6412,-4.6444,-4.6589,-4.6734,-4.6753,-4.6697,-4.6583,-4.6685,-4.6681,-4.6585,-4.6886,-4.6766,-4.6801,-4.695,-4.7252,-4.7275,-4.7298,-4.7502,-4.7554,-4.7597,0,0,0,0,0,0,-4.6463,-4.6471,-4.6408,-4.6639,-4.6687,-4.6703,-4.683,-4.6753,-4.6835,-4.6813,-4.674,-4.6751,-4.6958,-4.6972,-4.684,-4.721,-4.705,-4.7081,-4.7194,-4.7242,-4.7281,-4.7274,-4.6658,0,0,0,0,0,-4.6536,-4.6652,-4.6653,-4.6858,-4.6885,-4.6854,-4.6915,-4.6867,-4.6915,-4.6935,-4.6945,-4.6996,-4.71,-4.7172,-4.7269,-4.752,-4.7526,-4.7639,-4.7678,-4.771,-4.7738,-4.7872,-4.7922,-4.7384,-4.7384,-4.7384,0,0,-4.6689,-4.6708,-4.6786,-4.6901,-4.6932,-4.7055,-4.6872,-4.701,-4.7101,-4.6956,-4.7138,-4.7148,-4.7199,-4.7422,-4.7521,-4.7441,-4.7887,-4.7739,-4.7765,-4.7776,-4.79,-4.7951,-4.7997,-4.74,-4.7397,-4.7394,0,0,-4.7031,-4.7057,-4.7229,-4.7264,-4.7313,-4.7291,-4.7332,-4.7359,-4.7359,-4.7541,-4.7434,-4.7541,-4.7724,-4.7765,-4.781,-4.8165,-4.8079,-4.8198,-4.8403,-4.8534,-4.8576,-4.8613,-4.874,-4.8786,-4.8225,-4.8226,-4.8226,0,-4.7215,-4.7395,-4.7328,-4.7473,-4.7526,-4.7398,-4.7573,-4.761,-4.769,-4.773,-4.7638,-4.7864,-4.789,-4.8121,-4.8207,-4.8247,-4.8293,-4.8194,-4.8575,-4.8612,-4.8645,-4.8766,-4.8814,-4.824,-4.8239,-4.8237,-4.8236,0,-4.7619,-4.7745,-4.7879,-4.7957,-4.8025,-4.8185,-4.8142,-4.8219,-4.8165,-4.8152,-4.8338,-4.8364,-4.8463,-4.8514,-4.8464,-4.8738,-4.8686,-4.8586,-4.8424,-4.8712,-4.8824,-4.8869,-4.826,-4.8255,-4.8251,-4.8248,0,0,-4.8099,-4.8136,-4.8186,-4.822,-4.8264,-4.836,-4.8513,-4.8609,-4.8676,-4.8735,-4.8862,-4.9018,-4.8925,-4.8976,-4.8929,-4.9044,-4.9323,-4.8929,-4.8929,-4.9002,-4.9627,-4.9703,-4.9757,-4.9266,-4.9274,-4.9281,-4.9623,0,-4.8439,-4.8701,-4.8644,-4.8903,-4.9018,-4.8897,-4.903,-4.9072,-4.9064,-4.9161,-4.9152,-4.9264,-4.9133,-4.9163,-4.9271,-4.9266,-4.9448,-4.9241,-4.9384,-4.939,-4.9376,-4.9816,-4.9897,-5.0218,-4.9666,-4.9673,-4.9679,0,-4.8871,-4.8943,-4.9213,-4.9237,-4.9283,-4.9404,-4.9486,-4.958,-4.9625,-4.9611,-4.9667,-4.9597,-4.9748,-4.9583,-4.9791,-4.9652,-4.9707,-4.9713,-4.9724,-4.9737,-4.9553,-4.9841,-5.0319,-5.0368,-4.9747,-4.9741,-4.9736,0,-4.9194,-4.936,-4.9542,-4.9574,-4.9607,-4.9694,-4.9712,-4.9747,-4.9808,-4.988,-4.9918,-5.0008,-5.0057,-5.0128,-5.0084,-4.9967,-5.03,-5.0131,-5.0294,-5.0295,-5.0371,-5.0367,-5.0866,-5.0405,-5.0404,-5.0403,-5.0402,0,-4.958,-4.975,-4.9688,-4.9801,-4.9987,-4.9919,-5.0106,-5.011,-5.0142,-5.0253,-5.0154,-5.0261,-5.0195,-5.0297,-5.0263,-5.0441,-5.0464,-5.0457,-5.0446,-5.0467,-5.0468,-5.0503,-5.048,-5.0416,-5.0413,-5.0411,-5.0409,0,-4.9974,-4.9939,-5.013,-5.0144,-5.0151,-5.0289,-5.0301,-5.0405,-5.0388,-5.053,-5.056,-5.0534,-5.0648,-5.061,-5.0734,-5.0711,-5.0937,-5.0897,-5.0923,-5.0913,-5.1078,-5.1063,-5.1618,-5.1687,-5.1181,-5.1186,-5.119,0,-5.0224,-5.0351,-5.0378,-5.0445,-5.0469,-5.0578,-5.0638,-5.0577,-5.0644,-5.0703,-5.0801,-5.0906,-5.0987,-5.1176,-5.1169,-5.1262,-5.1224,-5.1412,-5.1238,-5.1254,-5.1228,-5.1221,-5.1233,-5.1447,-5.1453,-5.1458,-5.1462,0,-5.067,-5.0646,-5.0736,-5.0821,-5.0895,-5.096,-5.1015,-5.1075,-5.1016,-5.1097,-5.1212,-5.1274,-5.1399,-5.1505,-5.1589,-5.1607,-5.1527,-5.1516,-5.1559,-5.1582,-5.1591,-5.1589,-5.1018,-5.1504,-5.15,-5.1497,-5.1495,-5.1493,-5.1,-5.1107,-5.1142,-5.1246,-5.128,-5.1334,-5.1432,-5.1427,-5.1521,-5.1616,-5.1574,-5.1707,-5.1746,-5.185,-5.1881,-5.1984,-5.1911,-5.1973,-5.1989,-5.2006,-5.2027,-5.1574,-5.1999,-5.1997,-5.1996,-5.1995,-5.1994,0,-5.1441,-5.1457,-5.1553,-5.1632,-5.1714,-5.1627,-5.1683,-5.1758,-5.1875,-5.1919,-5.1999,-5.2131,-5.2233,-5.2233,-5.2327,-5.241,-5.2375,-5.2437,-5.2431,-5.2437,-5.2086,-5.204,-5.2464,-5.2464,-5.2464,-5.2463,-5.2463,-5.2463,-5.168,-5.1857,-5.1837,-5.2029,-5.2044,-5.2172,-5.2211,-5.226,-5.2294,-5.2445,-5.2528,-5.2526,-5.2553,-5.2648,-5.2737,-5.2734,-5.2774,-5.2851,-5.2835,-5.2508,-5.2461,-5.2417,-5.2373,-5.286,-5.2861,-5.3177,-5.318,-5.3182]},{"header":{"parameterUnit":"m.s-1","parameterCategory":1,"la1":30.2991,"la2":30.254,"lo1":-89.0895,"lo2":-89.0444,"dy":0.0017,"dx":0.0017,"nx":28,"ny":28,"refTime":"2023-11-01T09:00:00:Z","depth":0,"parameterNumber":3,"parameterNumberName":"V-component_of_WINDS"},"data":[0,0,0,0,0,0,0,0,0,0,0,0,0,0,0,0,0,0,0,0,0,0,0,0,0,0,0,0,0,0,0,0,0,0,0,0,0,0,0,0,0,0,0,0,0,0,0,0,0,0,0,0,0,0,0,0,0,0,-4.0896,-4.0896,0,-4.0933,-4.0933,-4.0934,-4.0906,-4.0904,-4.0903,-4.0902,-4.0938,-4.094,-4.0942,0,0,0,0,0,0,0,0,0,0,0,0,0,-4.0797,-4.0799,-4.0896,-4.0896,-4.0897,-4.0933,-4.0933,-4.0934,-4.0906,-4.0904,-4.0903,-4.0902,-4.0937,-4.0939,-4.0942,0,0,0,0,0,0,0,0,0,0,0,0,0,-4.0837,-4.0799,-4.0896,-4.0887,-4.0887,-4.0933,-4.0933,-4.0934,-4.0906,-4.0904,-4.0903,-4.0901,-4.0936,-4.0939,-4.0942,-4.0997,0,0,-4.0952,-4.0953,0,0,0,0,0,0,0,0,-4.0835,-4.0841,-4.0888,-4.0888,-4.0888,-4.0913,-4.0911,-4.0955,-4.0907,-4.0899,-4.0902,-4.09,-4.0931,-4.0934,-4.0945,-4.0999,-4.1001,-4.0952,-4.0954,-4.0955,-4.0956,0,0,0,0,0,0,0,-4.0832,-4.0839,-4.091,-4.0889,-4.0888,-4.088,-4.0884,-4.0919,-4.0924,-4.0899,-4.0897,-4.0902,-4.093,-4.0942,-4.0945,-4.1001,-4.0952,-4.0955,-4.0956,-4.0958,-4.1098,-4.11,0,0,0,0,0,0,-4.0831,-4.0837,-4.0909,-4.0911,-4.0856,-4.0883,-4.0888,-4.0906,-4.0924,-4.0925,-4.0904,-4.0901,-4.0938,-4.0942,-4.0947,-4.1009,-4.0955,-4.0958,-4.096,-4.1096,-4.1099,-4.1101,0,0,0,0,0,0,-4.0829,-4.0837,-4.0908,-4.0874,-4.0882,-4.0887,-4.0908,-4.0908,-4.092,-4.0927,-4.0928,-4.0915,-4.0936,-4.0942,-4.0984,-4.101,-4.0959,-4.0962,-4.1094,-4.1097,-4.11,-4.1137,0,0,0,0,0,0,-4.0826,-4.0837,-4.0859,-4.0874,-4.0884,-4.0946,-4.091,-4.091,-4.0926,-4.0922,-4.0938,-4.0939,-4.0935,-4.098,-4.0987,-4.1014,-4.0965,-4.1092,-4.1095,-4.1099,-4.1134,-4.1141,-4.1147,0,0,0,0,0,-4.0822,-4.0869,-4.086,-4.0869,-4.0912,-4.0948,-4.0953,-4.0949,-4.0928,-4.0949,-4.0953,-4.0938,-4.1007,-4.0984,-4.0993,-4.102,-4.109,-4.1094,-4.1098,-4.1131,-4.114,-4.1147,0,0,0,0,0,0,-4.0856,-4.0871,-4.0862,-4.0915,-4.093,-4.0943,-4.097,-4.0959,-4.098,-4.0976,-4.0969,-4.0972,-4.1016,-4.1023,-4.0997,-4.1073,-4.1045,-4.1051,-4.1066,-4.1075,-4.1082,-4.1078,-4.0967,0,0,0,0,0,-4.087,-4.0899,-4.091,-4.0955,-4.0963,-4.0965,-4.0981,-4.0976,-4.0991,-4.0998,-4.1005,-4.102,-4.1044,-4.106,-4.1083,-4.1135,-4.1136,-4.1158,-4.1165,-4.117,-4.1175,-4.1199,-4.1208,-4.1114,-4.1114,-4.1114,0,0,-4.0899,-4.091,-4.0929,-4.0962,-4.0973,-4.1001,-4.0971,-4.1003,-4.1023,-4.1002,-4.1041,-4.1047,-4.1063,-4.1109,-4.113,-4.1116,-4.1201,-4.1176,-4.118,-4.1182,-4.1204,-4.1213,-4.1221,-4.1117,-4.1117,-4.1116,0,0,-4.0964,-4.0977,-4.1014,-4.1026,-4.1044,-4.1044,-4.1053,-4.1067,-4.107,-4.111,-4.1094,-4.1117,-4.116,-4.1171,-4.1182,-4.1249,-4.1234,-4.1257,-4.1291,-4.1315,-4.1322,-4.1328,-4.1349,-4.1357,-4.1262,-4.1262,-4.1262,0,-4.0997,-4.104,-4.1035,-4.1067,-4.108,-4.1063,-4.1099,-4.1111,-4.1135,-4.1144,-4.1129,-4.118,-4.119,-4.1236,-4.1252,-4.1263,-4.1271,-4.1254,-4.1322,-4.1328,-4.1334,-4.1353,-4.1361,-4.1264,-4.1264,-4.1263,-4.1263,0,-4.1077,-4.1107,-4.1135,-4.1157,-4.1174,-4.1209,-4.1207,-4.1225,-4.1218,-4.1219,-4.1258,-4.1269,-4.1292,-4.1303,-4.1298,-4.1348,-4.1339,-4.1323,-4.1294,-4.1345,-4.1363,-4.1371,-4.1267,-4.1266,-4.1266,-4.1265,0,0,-4.1165,-4.1183,-4.1193,-4.1202,-4.1219,-4.1241,-4.1273,-4.1296,-4.1309,-4.1327,-4.1351,-4.1387,-4.1371,-4.1384,-4.1379,-4.14,-4.1448,-4.1381,-4.1381,-4.139,-4.15,-4.151,-4.1519,-4.1439,-4.1441,-4.1442,-4.1498,0,-4.1229,-4.1285,-4.128,-4.1333,-4.1358,-4.134,-4.1368,-4.138,-4.1382,-4.1403,-4.1405,-4.1429,-4.1408,-4.1415,-4.1435,-4.1438,-4.1469,-4.1434,-4.146,-4.1461,-4.1453,-4.1529,-4.154,-4.1592,-4.1505,-4.1506,-4.1507,0,-4.1311,-4.1329,-4.1384,-4.1393,-4.1404,-4.1429,-4.1447,-4.1468,-4.1481,-4.148,-4.1493,-4.1484,-4.1514,-4.1486,-4.1526,-4.1502,-4.1512,-4.1515,-4.1516,-4.1517,-4.1485,-4.1528,-4.1609,-4.1616,-4.1519,-4.1518,-4.1517,0,-4.1365,-4.1404,-4.144,-4.1449,-4.1462,-4.1479,-4.1486,-4.1497,-4.1509,-4.1526,-4.1533,-4.1554,-4.1564,-4.1578,-4.1574,-4.1555,-4.1613,-4.1586,-4.1611,-4.1611,-4.1623,-4.1621,-4.1704,-4.1634,-4.1634,-4.1634,-4.1634,0,-4.1435,-4.1468,-4.1464,-4.1487,-4.1522,-4.1516,-4.1551,-4.1555,-4.1565,-4.1586,-4.1573,-4.1593,-4.1587,-4.1606,-4.1603,-4.1634,-4.164,-4.1638,-4.1636,-4.1638,-4.1638,-4.1643,-4.1638,-4.1636,-4.1635,-4.1635,-4.1635,0,-4.1501,-4.1501,-4.1538,-4.1547,-4.155,-4.1576,-4.1583,-4.1603,-4.1603,-4.163,-4.1636,-4.1636,-4.1658,-4.1655,-4.168,-4.1677,-4.1715,-4.1711,-4.1711,-4.1709,-4.1733,-4.173,-4.1819,-4.1829,-4.1756,-4.1757,-4.1757,0,-4.1545,-4.1569,-4.158,-4.1593,-4.16,-4.1623,-4.1635,-4.1629,-4.1643,-4.1657,-4.1675,-4.1695,-4.1711,-4.1746,-4.1748,-4.1766,-4.1759,-4.179,-4.1762,-4.1762,-4.1756,-4.1754,-4.1754,-4.1794,-4.1795,-4.1796,-4.1796,0,-4.162,-4.1618,-4.1637,-4.1655,-4.167,-4.1684,-4.1697,-4.1708,-4.1703,-4.1719,-4.174,-4.1753,-4.1777,-4.1796,-4.1813,-4.1818,-4.1805,-4.1805,-4.1811,-4.1812,-4.181,-4.1808,-4.1722,-4.1803,-4.1802,-4.1802,-4.1801,-4.1801,-4.1674,-4.1694,-4.1704,-4.1724,-4.1733,-4.1744,-4.1762,-4.1764,-4.1782,-4.1801,-4.1797,-4.1821,-4.183,-4.185,-4.1857,-4.1875,-4.1863,-4.1873,-4.1875,-4.1877,-4.1878,-4.1809,-4.1878,-4.1878,-4.1878,-4.1877,-4.1877,0,-4.1746,-4.1751,-4.177,-4.1787,-4.1803,-4.1791,-4.1803,-4.1816,-4.1838,-4.1847,-4.1863,-4.1886,-4.1904,-4.1907,-4.1924,-4.1937,-4.1932,-4.1942,-4.1939,-4.194,-4.1889,-4.1881,-4.1945,-4.1945,-4.1945,-4.1945,-4.1945,-4.1945,-4.1785,-4.1817,-4.1815,-4.185,-4.1855,-4.1878,-4.1885,-4.1895,-4.1902,-4.1929,-4.1944,-4.1945,-4.1952,-4.1968,-4.1984,-4.1984,-4.199,-4.2001,-4.1999,-4.1951,-4.1944,-4.1937,-4.1929,-4.2003,-4.2003,-4.2047,-4.2048,-4.2048]}]]